Time,TemperatureF,DewpointF,PressureIn,WindDirection,WindDirectionDegrees,WindSpeedMPH,WindSpeedGustMPH,Humidity,HourlyPrecipIn,Conditions,Clouds,dailyrainin,SoftwareType,DateUTC
2014-08-30 00:00:00,57.6,55.6,30.19,East,90,0.0,1.0,93,0.00,,,0.00,VWS V14.01,2014-08-30 04:00:00,
2014-08-30 00:30:00,57.5,55.5,30.19,East,90,0.0,2.0,93,0.00,,,0.00,VWS V14.01,2014-08-30 04:30:00,
2014-08-30 01:00:00,57.2,55.2,30.21,East,90,0.0,2.0,93,0.00,,,0.00,VWS V14.01,2014-08-30 05:00:00,
2014-08-30 01:30:00,57.0,55.0,30.20,East,90,0.0,0.0,93,0.00,,,0.00,VWS V14.01,2014-08-30 05:30:00,
2014-08-30 02:00:00,57.8,55.8,30.21,East,90,0.0,0.0,93,0.00,,,0.00,VWS V14.01,2014-08-30 06:00:00,
2014-08-30 02:30:00,56.6,54.6,30.22,East,90,0.0,0.0,93,0.00,,,0.00,VWS V14.01,2014-08-30 06:30:00,
2014-08-30 03:00:00,55.9,53.9,30.22,East,90,0.0,1.0,93,0.00,,,0.00,VWS V14.01,2014-08-30 07:00:00,
2014-08-30 03:30:00,55.7,53.7,30.21,East,90,0.0,1.0,93,0.00,,,0.00,VWS V14.01,2014-08-30 07:30:00,
2014-08-30 04:00:00,55.1,53.1,30.21,East,90,0.0,1.0,93,0.00,,,0.00,VWS V14.01,2014-08-30 08:00:00,
2014-08-30 04:30:00,54.4,52.4,30.22,East,90,0.0,2.0,93,0.00,,,0.00,VWS V14.01,2014-08-30 08:30:00,
2014-08-30 05:00:00,54.4,52.4,30.23,East,90,0.0,1.0,93,0.00,,,0.00,VWS V14.01,2014-08-30 09:00:00,
2014-08-30 05:30:00,54.0,52.0,30.23,East,90,0.0,1.0,93,0.00,,,0.00,VWS V14.01,2014-08-30 09:30:00,
2014-08-30 06:00:00,53.6,51.6,30.23,East,90,0.0,1.0,93,0.00,,,0.00,VWS V14.01,2014-08-30 10:00:00,
2014-08-30 06:30:00,52.8,50.8,30.24,East,90,0.0,2.0,93,0.00,,,0.00,VWS V14.01,2014-08-30 10:30:00,
2014-08-30 07:00:00,53.7,51.7,30.23,East,90,0.0,1.0,93,0.00,,,0.00,VWS V14.01,2014-08-30 11:00:00,
2014-08-30 07:30:00,52.4,50.4,30.24,East,90,0.0,2.0,93,0.00,,,0.00,VWS V14.01,2014-08-30 11:30:00,
2014-08-30 08:00:00,53.9,51.9,30.23,East,90,0.0,3.0,93,0.00,,,0.00,VWS V14.01,2014-08-30 12:00:00,
2014-08-30 08:30:00,58.6,56.6,30.23,NNE,22,0.0,3.0,93,0.00,,,0.00,VWS V14.01,2014-08-30 12:30:00,
2014-08-30 09:00:00,60.1,58.1,30.23,NNW,338,1.0,4.0,93,0.00,,,0.00,VWS V14.01,2014-08-30 13:00:00,
2014-08-30 09:30:00,61.7,58.7,30.23,NW,315,1.0,5.0,90,0.00,,,0.00,VWS V14.01,2014-08-30 13:30:00,
2014-08-30 10:05:00,65.4,59.8,30.22,WNW,292,1.0,6.0,82,0.00,,,0.00,VWS V14.01,2014-08-30 14:05:00,
2014-08-30 10:10:00,68.0,60.9,30.21,WSW,244,0.0,5.0,78,0.00,,,0.00,VWS V14.01,2014-08-30 14:10:00,
2014-08-30 10:15:00,68.3,60.8,30.21,SSE,152,2.0,6.0,77,0.00,,,0.00,VWS V14.01,2014-08-30 14:15:00,
2014-08-30 10:20:00,68.5,61.0,30.21,NW,318,0.0,6.0,77,0.00,,,0.00,VWS V14.01,2014-08-30 14:20:00,
2014-08-30 10:25:00,69.1,61.6,30.21,North,5,0.0,6.0,77,0.00,,,0.00,VWS V14.01,2014-08-30 14:25:00,
2014-08-30 10:30:00,69.5,61.6,30.20,West,281,3.0,6.0,76,0.00,,,0.00,VWS V14.01,2014-08-30 14:30:00,
2014-08-30 10:35:00,69.5,61.2,30.20,WNW,296,2.0,5.0,75,0.00,,,0.00,VWS V14.01,2014-08-30 14:35:00,
2014-08-30 10:40:00,69.8,61.5,30.20,SSW,192,1.0,5.0,75,0.00,,,0.00,VWS V14.01,2014-08-30 14:40:00,
2014-08-30 10:45:00,70.5,61.8,30.20,East,82,1.0,5.0,74,0.00,,,0.00,VWS V14.01,2014-08-30 14:45:00,
2014-08-30 10:50:00,70.2,61.5,30.20,WSW,255,2.0,5.0,74,0.00,,,0.00,VWS V14.01,2014-08-30 14:50:00,
2014-08-30 10:55:00,69.8,61.2,30.20,WSW,245,0.0,8.0,74,0.00,,,0.00,VWS V14.01,2014-08-30 14:55:00,
2014-08-30 11:00:00,70.4,62.1,30.20,West,274,0.0,8.0,75,0.00,,,0.00,VWS V14.01,2014-08-30 15:00:00,
2014-08-30 11:05:00,71.0,61.9,30.20,East,92,2.0,4.0,73,0.00,,,0.00,VWS V14.01,2014-08-30 15:05:00,
2014-08-30 11:10:00,71.5,62.4,30.20,North,5,0.0,4.0,73,0.00,,,0.00,VWS V14.01,2014-08-30 15:10:00,
2014-08-30 11:15:00,71.9,61.6,30.20,NNE,24,2.0,4.0,70,0.00,,,0.00,VWS V14.01,2014-08-30 15:15:00,
2014-08-30 11:20:00,71.7,61.4,30.19,NW,304,3.0,4.0,70,0.00,,,0.00,VWS V14.01,2014-08-30 15:20:00,
2014-08-30 11:25:00,71.8,62.3,30.19,WNW,291,2.0,4.0,72,0.00,,,0.00,VWS V14.01,2014-08-30 15:25:00,
2014-08-30 11:30:00,72.2,62.7,30.19,SE,140,0.0,4.0,72,0.00,,,0.00,VWS V14.01,2014-08-30 15:30:00,
2014-08-30 11:35:00,72.7,62.4,30.19,East,90,5.0,5.0,70,0.00,,,0.00,VWS V14.01,2014-08-30 15:35:00,
2014-08-30 11:40:00,72.8,62.0,30.19,West,263,2.0,5.0,69,0.00,,,0.00,VWS V14.01,2014-08-30 15:40:00,
2014-08-30 11:45:00,72.5,61.8,30.18,SSE,148,0.0,6.0,69,0.00,,,0.00,VWS V14.01,2014-08-30 15:45:00,
2014-08-30 11:50:00,73.2,62.0,30.18,NNE,15,1.0,6.0,68,0.00,,,0.00,VWS V14.01,2014-08-30 15:50:00,
2014-08-30 11:55:00,73.6,61.5,30.18,ESE,109,2.0,6.0,66,0.00,,,0.00,VWS V14.01,2014-08-30 15:55:00,
2014-08-30 12:00:00,73.5,62.3,30.18,NW,313,0.0,6.0,68,0.00,,,0.00,VWS V14.01,2014-08-30 16:00:00,
2014-08-30 12:05:00,74.0,61.5,30.18,SW,226,0.0,4.0,65,0.00,,,0.00,VWS V14.01,2014-08-30 16:05:00,
2014-08-30 12:10:00,74.2,61.7,30.18,South,180,1.0,6.0,65,0.00,,,0.00,VWS V14.01,2014-08-30 16:10:00,
2014-08-30 12:15:00,74.1,62.0,30.17,SSW,193,1.0,6.0,66,0.00,,,0.00,VWS V14.01,2014-08-30 16:15:00,
2014-08-30 12:20:00,74.4,61.9,30.17,ESE,111,1.0,9.0,65,0.00,,,0.00,VWS V14.01,2014-08-30 16:20:00,